Location: Eschentzwiller
(47.7125°N, 7.3981°E)
Time: 00:24:13
(UTC+00:00)

YAOGAN 1 - Pass Details

Date: 27 October 2020
Orbit: 618 x 620 km, 97.9° (Epoch: 26 November)

Event Time Altitude Azimuth Distance (km) Brightness Sun altitude
Rises 18:16:37 0° 172° (S) 2,885 5.9 -20.1°
Reaches altitude 10° 18:18:49 10° 175° (S) 1,983 5.1 -20.5°
Maximum altitude 18:23:06 67° 258° (WSW) 677 2.9 -21.2°
Drops below altitude 10° 18:27:26 10° 341° (NNW) 1,999 5.4 -21.9°
Sets 18:29:39 0° 345° (NNW) 2,910 6.3 -22.3°
